Location: Aurent
(44.0438°N, 6.7157°E)
Time: 12:17:22
(UTC+00:00)

Daily predictions for brighter satellites

Satellite Brightness Start Highest point End
(mag) Time Altitude Azimuth Time Altitude Azimuth Time Altitude Azimuth
CZ-2D R/B 4.2 17:01:45 10° SE 17:04:58 26° ENE 17:08:12 10° NNE
CZ-4B R/B 2.4 17:02:39 10° NE 17:05:28 26° E 17:08:11 10° SSE
Landsat 5 3.8 17:02:51 10° N 17:06:40 63° WNW 17:10:26 10° SSW
MOS 1 Rocket 4.1 17:03:34 10° NE 17:07:11 26° E 17:10:51 10° SSE
NOAA 11 4.2 17:03:25 10° SSE 17:08:55 84° ENE 17:14:27 10° NNW
AQUARIUS 4.3 17:05:18 10° SSE 17:09:47 83° WSW 17:14:19 10° NNW
Cosmos-2242 4.3 17:06:57 10° NNE 17:10:09 20° ENE 17:13:21 10° ESE
NOSS 3-1 (C) 4.1 17:05:03 10° NW 17:12:34 73° NE 17:21:17 10° SE
COSMO-SKYMED 1 3.1 17:10:34 10° NNE 17:14:38 38° E 17:18:41 10° SSE
Cosmos 1937 Rocket 3.8 17:09:56 10° S 17:15:00 48° ESE 17:20:08 10° NNE
BREEZE-M DEB (TANK) 3.2 17:13:15 10° NW 17:15:13 24° N 17:17:14 10° ENE
Okean 1-7 Rocket 4.3 17:12:28 10° SSW 17:16:58 62° W 17:21:31 10° N
Aureole 3 2.5 17:14:57 10° N 17:18:00 86° E 17:20:59 10° S
OE (NEXTSAT) 4.4 17:14:41 10° WNW 17:18:08 80° SSW 17:21:34 10° ESE
USA 290 3.4 17:19:29 10° N 17:22:05 22° ENE 17:24:39 10° ESE
NOSS 2-1 (C) 3.4 17:19:49 10° SW 17:23:08 58° NW 17:26:33 10° NNE
Cosmos 1833 Rocket 3.0 17:20:41 10° NNW 17:26:01 42° ENE 17:31:19 10° SE
H-2A R/B 2.8 17:23:05 10° SE 17:27:26 30° ENE 17:31:55 10° N
Lacrosse 5 4.5 17:24:07 10° WNW 17:28:07 24° WSW 17:32:07 10° S
Meteor 1-21 Rocket 4.3 17:23:00 10° S 17:28:33 84° WNW 17:34:10 10° N
NOSS 2-1 (D) 3.7 17:25:50 10° SW 17:29:05 49° NW 17:32:27 10° NNE
Cosmos 1939 Rocket 2.8 17:25:31 10° SSE 17:29:35 80° ENE 17:33:38 10° N
Helios 1A Rocket 4.2 17:26:57 10° ESE 17:30:04 21° ENE 17:33:11 10° NNE
H-2A R/B 2.8 17:27:34 10° N 17:31:51 56° WNW 17:36:01 10° SSW
Cosmos 2344 4.4 17:23:16 10° NW 17:32:27 63° NE 17:45:14 10° SE
Cosmos 1602 Rocket 3.5 17:28:24 10° S 17:32:44 76° E 17:37:08 10° NNE
Cosmos 44 4.2 17:28:25 10° WSW 17:33:05 47° NW 17:38:03 10° NNE
Cosmos 2026 Rocket 4.0 17:27:57 10° SSE 17:33:55 57° E 17:40:02 10° NNE
USA 229 DEB 3.9 17:26:42 10° NW 17:34:02 72° NE 17:41:44 10° SE
USA 229 3.9 17:26:49 10° NW 17:34:08 71° NE 17:41:50 10° SE
Feng Yun 1-1 Rocket 4.2 17:29:26 10° SSE 17:34:53 72° ENE 17:40:30 10° N
CZ-3B R/B 2.3 17:32:21 10° NW 17:35:01 50° NE 17:42:41 10° ESE
SeaSat 1 4.5 17:31:19 10° N 17:35:11 23° NW 17:39:02 10° W
SJ 16-02 3.3 17:32:13 10° WSW 17:36:04 29° WNW 17:39:56 10° N
CSL-04 DEB 4.3 17:32:24 10° NNE 17:36:32 87° ESE 17:40:32 10° SSW
Cosmos 2112 Rocket 4.2 17:33:32 10° NNW 17:38:45 75° WSW 17:43:55 10° SSE
YAOGAN 1 3.2 17:35:04 10° SE 17:38:58 34° ENE 17:42:52 10° N
Cosmos 990 Rocket 4.4 17:34:15 10° SSW 17:39:24 65° WNW 17:44:34 10° NNE
Cosmos 1844 Rocket 4.3 17:36:22 10° WSW 17:41:25 32° NW 17:46:28 10° N
Cosmos 1689 Rocket 3.1 17:41:35 20° ENE 17:42:27 24° E 17:44:49 10° SSE
Cosmos 1553 Rocket 4.4 17:37:00 10° N 17:43:02 42° ENE 17:48:58 10° SE
Aureole 3 Rocket 2.7 17:40:28 10° N 17:43:44 56° E 17:47:51 10° SSE
COSMOS 2406 3.2 17:39:42 10° NNW 17:45:29 67° ENE 17:51:12 10° SE
Cosmos 2082 Rocket 2.8 17:40:34 10° N 17:45:46 35° NE 17:50:56 10° ESE
Cosmos 1703 3.8 17:42:58 10° SSW 17:46:48 60° W 17:50:39 10° N
Cosmos 1825 Rocket 3.9 17:43:41 10° SSE 17:47:49 43° E 17:52:01 10° NNE
IRS-1C Rocket 4.0 17:43:11 10° SSE 17:48:24 69° ENE 17:53:38 10° N
NOSS 3-1 (A) 4.1 17:42:10 10° NW 17:49:45 77° NE 17:58:30 10° SE
X-37B 0.5 17:46:33 10° WNW 17:49:45 85° S 17:51:36 23° ESE
ISS -2.0 17:49:47 10° NW 17:52:31 22° N 17:53:50 17° NNE
Cosmos 1812 Rocket 3.7 17:48:39 10° NNW 17:53:02 77° W 17:57:21 10° S
Okean O Rocket 3.5 17:50:24 10° SSW 17:54:26 34° W 17:58:27 10° NNW
CZ-4 R/B 1.3 17:54:36 10° SSE 17:58:35 62° ENE 18:02:31 10° N
Iridium 4 Rocket 3.4 17:56:00 10° N 18:01:22 83° E 18:06:14 10° S
ERS-2 2.0 17:59:08 10° NNE 18:02:47 70° ESE 18:06:24 10° S
SKYMED 2 4.0 17:58:27 10° N 18:02:47 65° WNW 18:07:04 10° SSW
CSL-04 Rocket 4.0 17:57:55 10° SE 18:03:00 41° ENE 18:08:09 10° N
Okean-O 2.5 18:01:40 10° SSE 18:06:03 68° ENE 18:10:28 10° N
S3M 4.2 18:03:42 10° N 18:09:33 45° ENE 18:15:24 10° SSE
USA 234 4.4 18:05:52 16° NE 18:09:47 28° N 18:15:11 10° NW
Cosmos 1340 4.2 18:06:56 10° SW 18:10:26 37° WNW 18:13:57 10° N
Cosmos 1346 Rocket 2.6 18:06:55 10° S 18:10:50 80° E 18:14:48 10° NNE
Cosmos 1655 Rocket 4.3 18:05:19 10° SSE 18:11:07 43° E 18:16:55 10° NNE
Cosmos 2278 Rocket 2.2 18:05:38 10° SSW 18:11:19 89° WNW 18:17:02 10° NNE
Cosmos 1953 Rocket 3.6 18:10:03 10° S 18:14:16 54° E 18:17:58 13° NNE
CZ-2C R/B 3.7 18:09:10 10° S 18:14:35 65° W 18:20:17 10° NNW
SWARM C 4.4 18:13:41 10° S 18:16:57 63° E 18:18:10 35° NNE
SWARM A 4.1 18:13:46 10° S 18:17:04 69° E 18:18:52 25° NNE
Cosmos 2292 Rocket 3.6 18:14:15 10° S 18:19:05 52° E 18:20:41 32° NE
Cosmos 1892 4.3 18:15:53 10° SSE 18:17:22 21° SE 18:17:22 21° SE
SAR-Lupe-4 3.5 18:17:50 15° NNE 18:20:43 86° WNW 18:24:17 10° SSW
Cosmos 44 Rocket 3.4 18:16:49 10° SSW 18:21:34 54° ESE 18:23:19 36° ENE
Cosmos 405 4.5 18:19:53 10° NNW 18:23:11 38° W 18:26:28 10° SSW
ARGOS 3.0 18:22:46 10° SSE 18:28:06 72° ENE 18:33:29 10° N
DMSP B5D1-3 4.4 18:24:24 10° NNE 18:29:32 79° ESE 18:34:39 10° S
Cosmos 1869 4.1 18:27:40 10° N 18:30:11 36° NNE 18:30:11 36° NNE
Cosmos 372 Rocket 4.3 18:29:48 10° SSW 18:34:58 66° WNW 18:39:58 11° NNE
CZ-4B R/B 4.2 18:35:16 10° NNW 18:37:27 17° WNW 18:39:36 10° WSW
Cosmos 468 4.4 18:33:36 10° NNW 18:38:51 68° ENE 18:41:13 33° SE
CZ-2C R/B 2.7 18:33:45 10° NNE 18:39:15 60° E 18:44:48 10° S
Cosmos 494 Rocket 4.1 18:37:46 10° N 18:42:30 50° NE 18:42:30 50° NE
Cosmos 2150 Rocket 3.8 18:39:00 10° SSW 18:44:08 77° ESE 18:45:58 41° NNE
Cosmos 1048 Rocket 3.8 18:42:40 10° NNW 18:47:50 80° ENE 18:49:36 42° SSE
Cosmos 2297 3.9 18:46:27 10° S 18:51:24 50° SE 18:51:24 50° SE
SL-08 RB Rocket 3.7 18:59:18 67° SSW 18:59:51 79° WSW 19:04:22 10° NNW
Helios 1A Rocket 4.4 19:01:09 10° SSW 19:04:59 36° W 19:08:50 10° NNW
H-2A R/B 3.5 19:02:07 10° SSW 19:06:45 36° W 19:11:32 10° NNW
Cosmos 1125 Rocket 3.4 19:03:36 10° SSW 19:08:41 85° SW 19:08:41 85° SW
Cosmos 1833 Rocket 4.5 19:04:55 10° NW 19:09:45 30° WSW 19:14:34 10° SSW
Cosmos 2266 Rocket 4.0 19:07:02 10° S 19:13:17 79° W 19:19:27 10° N
NOSS 2-2 (C) 4.5 19:15:08 10° NNW 19:20:07 68° NNE 19:20:07 68° NNE
X-37B 4.0 19:23:29 10° W 19:23:54 12° W 19:23:54 12° W
Cosmos 1943 Rocket 4.0 19:21:50 10° S 19:23:18 19° S 19:23:18 19° S
Cosmos 2082 Rocket 3.4 19:24:37 10° NW 19:29:54 39° WSW 19:33:42 17° SSW
ISS -0.4 19:26:47 10° NW 19:26:48 10° NW 19:26:48 10° NW
Cosmos 2315 Rocket 4.4 19:41:06 10° NNW 19:46:33 59° WNW 19:46:33 59° WNW
ATLAS 2AS CENTAUR R/B 4.4 19:43:58 10° NNW 19:48:21 21° N 19:48:21 21° N
USA 234 4.3 19:53:13 35° N 19:53:13 35° N 19:57:44 10° NW
CZ-4C R/B 4.4 19:54:00 10° NNW 19:56:58 21° N 19:56:58 21° N
